Theta_e
339 343 345 351 352 354 352 352 351 353 353 353 352 352 351 350 350 350 349 349 349 349 351 351 350 351 350 350 350 350 349 348 346 349 348 347 347 347 346 346 346 344 344 344 344 344 344 344 344 345 345 345 345 344 345 346 347 347 346 346 345 345 346 345 346 345 345 347 349 350 350 350 351 351 349 348 351 350 348 348 348 346 346 348 351
340 342 347 348 352 353 351 350 352 352 352 352 352 351 351 350 350 350 349 349 349 349 350 350 351 352 352 351 350 349 348 348 348 348 347 347 346 346 345 345 345 343 343 343 342 342 342 342 342 343 343 344 343 343 343 344 345 345 346 346 346 346 345 345 345 344 345 346 346 347 347 348 348 349 350 349 349 348 347 348 348 344 344 350 350
342 344 346 349 351 352 353 352 351 351 352 352 351 350 350 350 350 349 349 348 349 350 351 351 351 351 350 351 350 349 349 349 348 347 346 346 346 345 345 345 344 342 340 340 340 340 339 340 341 340 341 341 341 341 342 343 343 343 344 345 345 345 344 345 346 345 345 344 344 344 343 345 347 347 347 348 347 346 344 345 346 346 345 348 348
344 346 346 349 347 350 351 352 350 350 351 352 351 350 350 351 350 350 349 348 349 351 350 351 350 350 350 350 349 349 348 348 348 347 346 346 345 344 344 344 342 340 339 338 338 338 338 338 339 339 339 338 339 339 340 341 341 341 342 345 345 345 344 344 346 345 344 343 342 341 340 338 342 345 345 345 346 346 343 343 344 346 348 347 347
346 348 347 346 348 346 346 351 352 352 352 351 351 350 349 349 349 349 349 348 349 350 349 349 349 348 349 349 349 347 349 347 347 346 346 345 344 343 343 342 341 341 339 338 338 337 337 336 337 339 338 338 337 338 338 339 340 341 341 344 344 344 344 344 344 344 343 342 342 340 337 338 338 343 343 343 343 343 343 342 342 343 344 345 346
346 348 347 347 346 346 348 352 351 351 352 351 351 350 349 349 349 348 348 347 347 347 347 348 347 348 347 348 348 348 348 347 346 345 345 343 343 343 342 341 341 341 339 338 337 336 336 336 336 339 338 337 337 337 338 339 340 339 340 342 342 344 343 343 343 342 341 340 340 337 336 337 337 339 343 343 342 340 340 341 342 342 343 344 345
347 347 347 346 346 345 346 351 350 352 351 351 351 350 349 349 349 348 348 347 346 346 346 346 347 347 347 347 348 347 347 346 345 345 344 343 343 342 341 341 341 340 339 337 335 335 335 336 338 338 337 336 336 336 336 337 337 337 340 341 343 343 343 342 341 340 339 337 335 335 335 335 335 336 343 342 342 340 338 340 341 342 342 342 342
345 347 347 346 346 345 346 350 351 350 350 351 351 350 349 349 349 349 348 347 346 346 346 346 347 346 346 347 347 346 345 346 345 344 343 343 343 342 341 342 341 340 339 337 335 334 335 335 336 336 335 335 335 335 335 334 336 338 340 341 341 341 341 340 341 340 339 335 334 335 335 334 334 335 341 342 340 340 338 338 339 340 341 341 339
344 346 347 346 345 344 346 349 351 351 350 351 351 350 349 349 350 349 347 347 346 346 345 345 347 347 347 347 346 345 345 346 345 344 344 343 342 342 341 340 340 339 338 337 335 333 332 332 334 334 335 335 334 334 335 335 336 338 340 340 340 339 340 338 337 336 335 333 333 333 333 333 332 333 339 340 340 338 338 336 337 337 337 337 337
343 345 346 346 345 343 345 349 350 349 350 350 350 350 350 350 349 348 347 346 346 345 346 346 346 346 347 346 346 345 344 345 344 343 343 343 342 341 340 339 339 338 338 337 335 333 331 331 332 333 334 334 334 333 334 335 336 338 339 338 338 339 338 336 334 331 330 331 331 332 335 338 330 332 337 340 339 336 335 335 334 334 334 335 335
341 344 345 346 344 343 347 350 350 349 350 351 349 350 349 349 349 347 347 347 346 346 346 346 346 346 346 346 345 344 344 344 343 343 342 342 341 341 339 339 338 338 337 337 336 333 331 330 330 331 333 332 333 333 334 335 336 337 337 337 338 337 336 334 330 325 328 328 327 327 332 337 330 331 338 339 339 336 333 333 334 334 334 335 335
342 344 344 343 344 342 347 349 349 350 350 350 350 350 349 349 349 347 347 347 346 346 346 346 346 346 346 345 345 344 344 343 343 342 341 341 341 340 339 338 338 337 337 337 336 333 330 328 328 329 330 330 330 331 333 334 335 336 335 336 336 334 334 332 327 327 328 328 328 330 328 329 329 334 337 337 338 336 333 332 333 334 334 332 333
343 345 344 343 342 340 345 348 347 349 349 349 349 349 349 349 348 348 347 347 347 346 346 346 346 346 346 345 344 344 344 343 343 342 341 341 340 340 339 339 337 337 337 337 336 334 331 328 326 327 327 328 329 330 331 333 334 333 334 334 333 332 331 331 327 327 327 327 328 328 328 327 328 336 335 336 337 336 333 332 332 333 333 332 333
344 345 346 346 344 343 342 345 346 348 349 349 349 347 349 348 348 347 347 347 347 346 345 346 346 346 346 345 344 344 343 343 342 342 342 341 341 340 339 338 337 336 337 336 336 334 332 328 325 323 325 326 327 328 330 332 332 332 332 332 331 330 328 327 328 325 326 326 327 328 327 329 326 333 334 334 336 336 333 330 332 332 331 331 332
344 344 345 346 345 343 341 341 343 345 346 348 348 348 349 349 349 349 348 348 347 346 346 346 346 346 346 345 344 344 343 342 342 342 341 340 340 340 338 338 337 336 336 335 335 334 332 329 325 322 321 321 324 326 329 329 329 329 329 330 329 328 326 322 323 322 323 325 325 327 327 328 334 333 333 334 336 335 332 330 331 332 331 330 331
342 342 343 343 343 343 344 341 339 340 342 344 344 346 347 348 348 349 348 348 347 346 347 346 346 346 345 344 344 343 342 342 342 341 340 340 340 339 338 337 336 335 334 334 334 333 331 329 326 323 320 320 321 325 326 326 327 328 328 327 326 326 324 322 320 320 320 321 323 325 326 328 334 333 334 335 336 333 331 330 330 332 331 330 330
336 340 342 341 342 343 343 345 340 336 337 339 339 342 343 345 347 348 347 347 347 347 346 346 346 346 345 344 344 343 342 342 341 341 341 340 339 338 337 337 336 335 334 334 333 332 330 329 327 324 320 321 323 323 322 323 325 326 326 324 323 324 323 321 318 318 319 321 322 323 324 329 333 333 333 334 335 332 330 330 330 331 330 330 330
330 333 333 334 338 342 343 343 342 343 342 336 334 337 340 342 343 341 342 344 345 345 345 344 345 343 343 341 340 339 340 341 341 341 340 339 339 339 337 336 335 334 333 333 332 331 330 329 328 326 321 320 321 320 320 319 321 322 322 321 319 320 320 318 316 316 317 320 318 322 323 335 333 333 332 332 333 332 329 330 330 330 330 329 329
316 320 322 325 328 334 343 343 343 343 342 342 342 339 336 338 339 337 338 340 342 341 341 342 340 340 339 337 336 334 334 335 335 336 338 336 335 333 337 336 335 334 333 332 332 331 330 329 328 326 324 321 319 318 318 318 318 319 319 318 315 314 315 314 313 313 313 314 316 318 323 332 333 332 332 333 332 332 330 329 329 330 329 328 328
313 314 315 315 316 319 326 337 340 342 342 342 342 342 334 332 335 336 336 337 337 338 338 338 333 332 332 331 330 331 329 330 328 331 331 334 332 331 334 336 335 334 333 332 331 331 330 329 328 326 324 322 321 320 320 317 317 318 317 315 312 308 304 308 309 310 309 309 312 313 324 328 333 332 332 333 332 332 329 328 330 328 327 328 327
312 312 313 314 316 316 317 319 325 336 342 341 341 341 338 329 330 329 331 333 333 333 335 329 325 324 326 325 325 331 329 330 330 329 325 329 324 326 332 335 336 335 333 332 332 331 330 330 328 326 325 323 321 318 317 320 319 319 315 312 306 298 299 303 307 308 306 305 307 310 319 322 327 332 331 333 331 330 331 328 328 327 327 328 326
308 310 311 313 314 316 316 317 317 318 328 340 341 340 337 334 336 333 334 331 329 326 328 331 328 330 324 327 332 331 330 329 329 329 328 327 325 324 326 331 335 333 332 333 332 331 330 330 329 328 326 324 319 307 306 313 317 317 312 307 298 296 297 299 304 306 304 304 307 314 317 318 321 325 328 330 331 333 333 334 336 335 330 327 326
308 308 309 311 312 314 315 315 317 317 319 331 341 341 338 338 339 338 337 331 330 330 332 329 331 330 330 332 333 333 332 328 328 328 327 322 326 322 325 329 332 331 330 332 332 332 331 330 329 329 327 320 311 308 306 305 306 311 309 304 298 298 298 298 300 302 303 303 304 317 318 317 318 322 324 324 325 327 329 330 332 334 335 335 335
305 306 308 310 311 312 313 314 316 317 316 325 338 341 339 340 339 338 336 335 333 333 333 333 332 331 332 333 334 333 333 330 327 324 324 325 324 321 323 324 326 326 326 327 329 331 332 328 327 323 318 313 311 310 310 307 308 308 309 306 303 301 301 300 300 301 301 305 306 316 318 319 318 319 323 325 324 323 323 323 325 331 333 334 334
304 306 307 309 310 311 312 313 315 318 316 318 330 339 339 340 339 338 337 335 334 334 334 333 331 330 332 333 334 333 334 332 328 328 327 326 326 326 325 326 324 322 322 321 319 319 317 315 314 313 311 312 312 311 312 310 309 310 310 308 307 305 305 304 304 302 302 301 306 317 317 320 322 320 320 323 324 325 325 326 326 327 328 329 331
305 306 307 308 309 311 310 312 314 317 317 316 323 329 338 339 337 338 336 336 333 332 332 333 331 330 331 331 332 332 330 329 328 328 327 328 327 326 327 325 324 323 320 320 319 317 315 314 315 314 312 312 312 310 308 310 310 308 310 308 308 306 306 305 304 305 304 302 305 318 317 318 321 324 323 322 322 323 323 324 325 326 327 328 328
307 307 306 307 309 309 310 311 312 316 317 316 327 331 333 333 333 334 336 334 333 331 331 331 332 332 332 330 331 330 328 328 328 327 327 326 325 325 326 326 324 323 321 321 322 322 317 315 314 313 310 311 311 309 309 308 307 309 309 308 307 307 306 305 305 304 304 304 306 315 316 317 319 322 324 325 324 322 321 320 321 324 324 325 327
309 307 306 306 308 309 310 311 313 317 316 330 329 328 328 327 326 325 328 326 327 327 327 327 327 326 326 328 328 329 329 328 328 328 328 328 327 327 327 325 325 326 325 325 324 322 321 317 316 314 314 313 313 311 310 310 309 308 309 309 309 308 307 304 305 305 305 304 304 311 316 317 318 320 323 324 324 324 324 323 322 322 322 322 323
307 307 307 309 312 313 313 315 316 319 325 327 325 325 324 323 323 323 323 321 323 323 323 324 324 324 324 324 325 325 324 322 322 322 322 321 321 321 322 321 322 322 324 323 324 323 322 321 319 318 317 316 314 314 315 314 312 309 308 309 309 309 308 307 306 306 305 303 302 306 313 316 319 318 319 322 324 324 324 324 324 324 323 323 322
306 307 308 311 313 316 320 322 323 325 325 323 322 321 320 319 319 319 319 319 320 320 321 320 321 322 321 321 321 322 321 320 319 319 319 318 318 318 318 318 318 319 320 319 320 321 320 320 319 318 316 314 312 312 312 311 311 311 310 310 309 309 308 307 306 304 303 302 301 301 308 312 314 316 317 318 320 322 323 323 324 325 325 326 325
306 306 308 310 314 317 320 320 320 321 322 320 319 317 316 315 315 316 316 315 317 317 316 317 318 319 319 320 320 319 319 319 319 318 317 317 316 316 315 315 314 315 316 316 317 317 316 316 315 314 311 308 307 308 308 307 307 308 309 311 310 308 306 305 304 302 301 300 299 299 301 307 311 311 313 315 318 320 320 321 322 323 325 325 325
304 305 308 311 314 315 317 319 319 319 319 318 316 315 313 312 312 312 311 312 312 311 312 313 313 315 316 316 317 317 316 316 316 315 315 314 313 313 313 313 313 312 312 311 310 311 310 309 308 308 306 304 303 302 303 304 304 304 305 307 308 305 304 303 301 300 299 298 298 298 298 300 305 308 308 310 314 316 317 317 318 320 322 323 324
304 304 309 311 312 313 314 315 316 315 315 315 313 313 311 310 310 309 309 309 309 309 308 309 309 310 311 311 311 312 312 311 310 310 309 310 309 308 308 309 310 310 308 306 305 305 305 305 304 305 303 302 300 299 301 301 300 301 303 304 304 302 301 301 299 299 298 297 297 297 297 298 298 303 304 305 308 310 312 314 316 317 319 320 322
305 308 310 309 311 312 312 312 311 311 310 310 309 308 308 307 307 307 307 307 307 306 306 306 306 306 307 307 307 307 307 307 306 305 305 304 303 303 303 304 305 307 307 303 300 300 299 299 299 298 298 297 297 297 298 298 298 298 300 302 301 300 299 299 298 297 297 297 297 297 297 297 297 297 296 300 302 306 308 310 312 313 315 317 319
307 308 308 309 310 310 310 309 308 307 306 306 306 305 306 305 305 304 305 305 304 304 304 305 305 305 305 305 305 305 305 305 305 304 303 303 302 301 301 301 302 303 303 302 299 297 296 295 296 295 294 294 294 295 295 295 296 298 299 299 298 298 298 298 298 297 297 296 297 296 296 296 296 296 295 292 295 301 304 306 307 309 312 314 316
307 307 307 308 308 308 308 307 307 305 305 304 304 303 303 302 302 303 302 302 302 301 302 302 302 303 304 304 303 302 302 302 301 301 300 299 299 298 298 299 299 300 300 300 300 297 295 294 294 293 291 291 292 292 292 294 295 297 297 297 296 297 297 296 296 296 295 295 294 295 295 295 295 295 296 292 290 294 301 303 304 305 308 310 312
308 307 306 306 306 307 307 305 304 304 303 302 301 300 300 299 299 299 298 299 299 298 298 299 299 299 299 299 299 299 298 297 296 297 296 296 296 295 296 296 297 297 296 297 297 297 295 293 291 291 290 288 289 290 292 293 296 296 295 294 295 296 296 296 295 295 295 293 292 292 293 294 295 297 293 292 290 289 294 299 300 301 302 306 308
307 307 306 306 305 305 305 304 303 303 301 300 299 298 297 297 296 296 296 295 295 296 296 296 296 296 295 295 295 295 295 295 294 294 294 294 294 294 294 295 295 294 293 293 293 294 293 291 289 289 289 288 288 288 291 293 296 294 293 293 293 294 294 295 295 296 293 292 291 290 290 292 293 293 293 292 289 288 288 292 296 296 297 301 305
307 306 306 306 305 304 304 303 302 302 300 299 298 297 296 295 295 294 293 293 293 294 294 294 294 294 294 294 294 293 294 294 294 293 293 292 292 292 292 292 293 292 291 291 290 290 290 290 289 288 289 288 287 287 288 292 295 293 292 291 291 291 292 293 293 294 293 291 291 291 290 289 291 292 292 291 290 288 288 288 287 287 289 298 302
307 306 305 305 304 303 303 302 301 300 299 298 297 296 295 294 292 292 291 292 292 292 293 293 293 293 293 293 293 292 293 292 292 292 292 291 290 290 289 290 290 289 288 288 287 288 288 288 288 287 287 287 287 287 287 289 293 293 292 291 290 290 290 291 291 291 292 292 289 289 288 288 288 290 290 290 289 288 287 287 288 286 287 292 298
305 306 305 304 304 303 302 302 301 301 299 297 296 295 293 292 291 290 289 290 290 291 291 291 291 292 292 292 292 291 291 291 290 289 289 289 288 288 288 288 288 288 287 286 287 287 287 287 287 287 286 286 285 286 286 286 291 292 288 290 291 289 289 289 290 289 289 289 289 287 287 286 286 287 289 288 289 287 287 286 286 286 286 287 289
302 303 303 303 303 302 301 300 301 300 299 297 296 295 294 292 291 289 289 289 289 288 289 290 290 291 290 290 290 289 289 288 288 288 288 287 287 287 286 286 286 286 286 286 286 287 286 286 286 286 286 285 284 285 286 284 284 285 286 286 287 288 287 286 288 288 288 287 288 287 286 285 285 285 287 285 286 287 286 285 285 285 286 286 287
302 301 301 301 301 300 299 298 297 296 295 295 294 292 292 291 290 290 289 288 289 290 289 289 289 289 289 288 288 287 287 287 287 287 287 286 286 286 285 286 285 286 285 285 285 285 285 285 284 284 283 284 284 285 285 285 282 283 284 283 281 281 285 283 284 287 286 286 285 286 285 284 284 284 286 285 285 286 286 285 284 284 285 286 287
300 300 300 298 298 297 298 297 296 294 293 293 292 291 291 290 290 290 290 289 288 289 288 288 287 287 286 287 287 287 287 286 286 286 286 286 285 285 285 285 285 285 285 284 284 284 284 284 284 284 282 282 282 283 285 284 284 282 279 283 282 279 276 278 281 283 285 285 284 285 284 284 283 283 285 284 284 285 285 284 284 284 284 285 286
299 299 299 298 297 296 297 296 294 293 292 292 291 291 290 289 289 289 289 288 288 287 286 285 286 286 286 286 286 286 286 286 286 286 286 286 285 285 285 285 285 284 285 284 283 283 283 283 283 283 282 281 281 280 283 284 284 285 283 279 278 277 278 279 280 280 282 283 283 284 285 283 283 283 283 283 283 284 284 284 284 284 284 284 285
299 299 298 297 296 296 295 294 293 292 291 291 291 290 289 288 287 286 285 284 283 283 283 283 284 284 284 285 285 286 286 286 285 286 286 286 285 285 285 284 284 284 284 284 283 283 283 283 283 283 282 282 281 280 280 282 283 283 283 282 281 278 278 278 277 276 280 281 282 283 282 281 282 282 282 282 282 282 283 283 283 283 283 284 285
298 299 297 295 295 295 294 292 291 291 291 290 290 289 288 287 286 285 285 284 283 283 284 284 284 284 285 284 284 285 285 285 285 285 285 285 284 284 284 284 284 284 284 283 283 282 283 283 283 283 282 283 281 280 279 280 279 282 282 281 282 282 281 278 276 277 274 275 279 280 281 280 281 281 281 281 282 281 282 283 282 282 282 283 284
298 297 296 295 293 292 291 291 291 291 290 289 287 287 286 286 286 285 285 284 284 284 284 284 284 285 284 284 284 284 284 284 284 284 284 284 284 284 283 283 283 283 283 282 282 281 282 283 283 282 283 282 281 280 279 280 278 279 281 280 280 280 279 279 278 277 277 275 277 280 280 280 280 280 280 280 280 280 281 281 281 282 282 283 283
297 296 295 295 294 292 292 292 290 289 287 287 286 286 287 286 286 285 284 285 285 285 285 285 284 284 284 283 284 284 284 284 284 284 283 284 284 283 283 283 283 282 283 282 282 281 281 280 280 281 281 281 282 281 280 279 279 278 278 279 279 278 277 277 278 278 277 275 275 276 277 279 278 279 279 279 279 280 281 281 281 282 282 282 282
295 295 294 293 292 292 290 289 287 287 287 286 286 286 287 287 285 285 284 284 284 284 284 283 283 283 283 283 283 283 283 283 283 283 283 283 283 283 283 282 282 282 282 281 281 281 281 280 280 280 280 280 280 281 280 279 279 279 278 279 278 277 276 276 276 276 275 276 275 275 275 275 275 278 279 280 280 280 280 280 280 280 281 281 281
293 293 292 291 291 290 288 287 286 286 286 286 286 286 286 286 285 285 285 284 283 283 283 282 282 283 282 282 282 283 283 283 283 283 283 283 283 283 282 282 282 282 281 281 280 280 280 279 279 279 279 279 278 279 280 279 279 279 278 278 277 277 277 276 275 276 275 274 274 274 275 276 275 275 277 278 280 280 279 278 279 279 280 280 281
Wind_Speed
2 4 3 5 7 9 10 10 10 12 12 13 13 13 13 13 13 12 13 13 12 12 13 12 12 13 13 14 15 15 16 15 15 16 15 15 15 15 15 16 15 15 15 15 15 15 14 14 14 14 14 14 14 13 13 13 13 13 14 14 14 14 15 14 13 12 12 13 16 17 17 16 17 17 16 18 18 18 17 16 13 10 7 10 14
6 3 4 4 7 9 11 10 11 11 12 12 12 13 13 12 12 12 12 12 12 12 12 12 12 12 13 13 14 15 15 16 16 15 15 15 15 15 15 15 14 15 15 15 15 15 14 14 14 14 14 14 14 13 12 12 12 12 13 14 14 15 14 13 12 10 10 13 14 15 15 17 17 18 18 19 19 19 17 17 17 8 5 13 14
4 4 3 5 7 8 9 10 12 10 13 12 12 11 11 12 11 11 12 11 12 12 12 12 12 12 13 13 14 14 15 15 15 15 15 15 15 15 15 15 15 15 15 15 15 15 14 14 14 14 14 13 13 13 13 12 12 11 12 13 14 14 14 15 15 13 13 14 13 16 15 15 17 18 17 17 18 18 17 17 17 16 10 16 13
7 4 3 6 8 5 7 9 12 10 12 12 12 10 10 10 10 11 11 11 12 12 12 12 13 12 13 14 13 13 14 15 15 15 15 15 15 15 15 15 14 15 14 14 14 14 14 14 14 14 13 13 13 12 12 11 11 11 11 12 13 14 14 14 13 13 13 14 13 11 7 6 9 17 17 17 17 17 16 17 17 17 18 16 16
7 4 3 5 7 7 8 9 10 12 12 12 12 11 11 11 11 11 11 11 13 12 12 13 12 12 13 13 13 13 14 15 15 15 15 14 15 15 14 14 14 14 14 14 14 14 14 14 14 14 13 13 13 12 12 11 11 11 11 12 13 13 14 13 12 13 13 13 12 7 6 6 6 15 16 16 17 16 16 16 17 17 17 17 16
6 5 3 5 6 7 9 9 11 12 12 12 12 12 11 11 11 11 11 11 10 11 12 11 12 12 12 13 14 13 14 14 14 15 14 14 14 15 14 14 14 13 13 14 14 14 14 14 14 14 14 13 13 13 12 12 12 11 12 12 13 14 15 13 12 12 12 13 9 6 6 6 5 7 16 16 16 16 16 16 16 15 16 17 16
8 4 4 5 5 5 8 9 11 11 12 12 12 12 12 11 12 12 12 11 11 11 11 11 11 11 12 13 13 13 14 14 15 15 14 14 14 14 14 14 13 13 13 13 13 13 13 13 14 14 14 14 14 13 13 13 12 12 12 13 14 15 15 14 13 12 10 6 5 5 6 6 5 4 16 16 16 16 16 16 15 15 15 15 16
4 5 4 4 5 6 8 10 11 11 11 11 11 12 11 11 11 12 13 12 11 10 11 11 11 11 11 12 13 13 14 15 15 15 14 14 14 14 14 13 13 13 13 13 13 13 13 13 13 13 13 13 13 13 13 13 12 12 13 14 15 15 15 13 11 10 9 6 5 5 5 5 5 4 15 16 16 16 15 15 14 14 15 15 13
5 4 5 5 5 9 8 8 10 11 11 10 9 10 11 10 9 10 12 12 11 11 10 11 10 11 11 12 13 12 14 15 15 14 14 14 14 14 13 12 12 12 12 12 12 12 12 12 13 13 13 13 13 13 13 13 13 13 14 14 15 15 14 12 9 8 5 4 5 5 5 4 4 4 12 15 15 15 15 12 10 14 14 14 14
5 4 4 5 6 9 9 9 11 11 11 11 9 9 10 8 8 10 12 12 11 11 10 10 10 10 12 13 14 13 13 15 15 14 14 14 14 14 12 11 11 11 11 11 11 12 12 12 12 12 13 13 13 13 13 14 14 14 14 15 15 15 15 13 10 7 5 5 5 4 4 6 4 4 11 14 15 15 14 13 11 10 10 13 14
5 5 4 5 7 11 11 10 9 10 10 10 10 10 10 9 9 10 10 11 11 10 10 10 10 10 12 13 13 13 14 15 15 14 14 13 14 12 11 11 11 10 10 11 11 11 11 12 12 12 12 13 13 13 13 14 14 14 15 15 15 16 14 12 9 6 6 6 6 5 5 7 4 4 13 14 14 14 14 13 12 13 14 15 15
5 4 3 3 7 11 11 10 10 10 7 8 10 10 10 8 8 10 10 9 10 10 9 9 9 10 12 13 12 13 14 15 14 14 13 13 13 12 11 10 10 10 10 10 11 11 11 11 12 12 12 12 12 13 13 13 14 14 15 15 16 15 14 12 8 7 7 7 7 6 6 5 5 8 14 14 13 14 13 12 12 13 14 14 14
4 4 3 3 4 8 9 10 10 9 8 8 10 10 10 9 8 9 10 9 9 9 9 9 9 10 13 13 13 12 13 13 13 13 13 12 12 12 11 10 10 10 10 10 11 11 11 12 12 12 12 11 12 12 13 13 14 14 14 15 15 14 13 12 7 7 7 7 6 7 6 5 4 12 12 13 13 14 13 12 12 13 14 14 13
5 5 4 5 4 6 9 9 9 9 8 7 9 8 8 9 9 9 10 9 9 9 9 10 10 11 13 13 13 12 13 13 12 12 12 13 13 11 10 10 10 10 10 10 11 11 12 12 12 12 11 11 11 12 13 13 14 14 14 16 15 13 11 9 7 6 7 7 6 6 6 5 3 10 11 11 13 13 13 11 11 13 13 12 13
6 5 5 5 5 4 7 7 7 7 8 6 7 6 7 6 7 7 8 7 8 8 9 10 10 12 13 13 13 13 13 13 13 12 12 12 12 11 10 10 10 10 10 10 10 11 12 12 12 12 12 12 12 12 13 13 14 14 15 15 15 13 10 6 6 5 6 6 5 6 6 5 9 10 12 13 14 13 13 11 11 12 12 11 12
5 5 5 4 4 4 4 5 8 7 7 6 5 6 6 6 5 6 7 7 7 8 9 9 10 12 13 13 13 13 13 13 12 12 11 11 12 11 10 10 10 10 10 10 11 11 12 13 13 13 13 13 13 13 14 14 14 14 14 15 14 12 11 8 6 6 5 5 5 5 6 5 12 12 12 14 14 13 12 11 11 11 11 12 11
6 5 5 4 3 3 3 4 5 8 7 8 6 3 5 5 5 6 6 7 8 8 9 8 8 11 12 11 11 11 11 11 12 12 10 10 12 11 10 11 10 10 9 10 11 11 11 12 13 14 14 14 14 15 15 15 15 14 14 14 14 12 10 9 6 5 6 6 5 5 5 5 8 10 11 12 13 12 11 11 10 11 11 11 11
7 6 6 4 2 2 3 4 6 6 4 6 7 6 4 5 3 5 4 6 6 7 9 8 8 9 9 9 9 8 10 10 10 9 10 10 10 9 10 10 10 10 9 10 10 11 11 11 12 14 14 15 15 15 15 15 15 14 13 14 13 12 10 9 6 5 6 6 6 5 6 7 9 10 10 11 11 12 10 9 10 10 10 10 9
8 8 7 8 7 4 1 1 5 5 5 4 4 6 7 5 5 4 5 3 6 9 8 8 9 8 9 8 7 7 8 8 8 7 9 9 8 8 8 8 10 9 8 9 10 11 10 10 11 12 12 14 14 14 14 14 13 13 12 11 12 10 10 7 5 6 6 6 6 7 7 12 9 9 10 9 10 10 10 10 9 10 10 9 9
6 7 7 6 5 6 6 4 1 4 4 6 5 4 4 7 6 4 3 4 5 6 9 7 9 10 9 9 9 7 6 5 8 6 8 8 8 7 8 7 8 9 8 8 9 10 9 9 9 10 10 11 11 11 11 12 12 11 11 11 10 10 7 6 5 6 6 6 6 6 9 14 12 9 9 11 10 10 9 9 8 8 6 9 9
5 6 6 6 6 6 7 5 5 2 3 4 5 7 6 7 7 7 5 4 6 5 7 8 8 8 8 8 8 6 4 4 5 5 8 5 7 9 7 6 6 6 6 6 8 8 9 9 8 9 8 8 8 9 9 10 10 10 10 10 11 8 6 6 6 5 5 6 6 6 13 13 13 11 10 11 11 10 12 8 7 5 6 7 6
5 6 5 6 6 6 6 6 5 6 6 2 3 3 3 6 6 5 5 4 3 5 5 5 4 4 6 6 5 5 4 4 4 5 5 5 6 8 8 7 5 4 4 5 6 8 8 8 8 8 8 8 8 6 6 8 10 10 10 11 8 6 6 6 6 6 4 5 5 8 15 14 13 12 11 11 11 12 13 14 13 14 10 4 3
6 6 6 6 5 5 5 6 6 5 5 2 3 5 6 5 6 6 5 6 4 5 4 4 3 4 5 5 3 3 4 3 4 5 4 6 5 7 8 7 6 4 3 4 4 5 7 8 7 7 7 8 6 5 6 6 6 9 8 7 6 6 6 6 5 6 5 4 4 11 15 14 14 14 13 12 12 12 13 14 14 12 13 14 17
3 3 5 4 5 5 6 4 5 6 4 4 3 5 6 5 4 5 4 4 2 2 4 3 2 4 3 3 3 3 4 3 4 6 6 5 4 5 7 7 6 5 2 2 4 4 7 7 7 7 5 4 5 5 6 5 6 5 6 5 5 5 5 5 5 5 5 4 5 12 15 16 15 14 14 14 15 14 13 14 13 13 14 13 13
1 3 4 6 5 5 5 6 6 4 4 4 3 4 4 4 5 4 4 3 4 3 2 4 3 3 4 3 3 4 4 3 2 3 4 4 4 3 3 3 3 3 2 1 1 3 4 4 4 4 3 4 4 4 5 6 5 5 5 5 5 4 5 5 5 5 5 4 5 10 13 16 17 15 14 14 15 15 15 15 14 13 13 14 13
2 4 4 5 6 5 4 5 6 4 3 4 4 2 4 5 4 4 4 2 3 2 3 4 4 1 3 1 4 4 2 3 4 3 4 5 5 5 4 3 2 2 1 1 1 2 2 2 3 4 3 3 4 4 3 5 4 4 4 4 5 4 5 5 5 6 5 5 4 9 11 15 17 17 16 15 15 16 16 16 16 16 16 16 16
3 2 3 3 5 5 5 4 5 4 4 4 1 3 4 4 5 4 4 4 3 4 3 4 4 4 5 2 3 3 3 2 3 3 3 2 1 1 4 3 2 2 1 1 0 2 1 2 4 3 2 4 4 4 5 4 4 4 5 4 4 5 5 5 6 6 6 7 8 12 11 14 16 17 18 17 17 16 16 16 16 16 16 16 16
1 2 3 4 5 6 5 4 3 2 1 3 6 6 6 7 7 8 8 7 8 8 8 7 7 7 6 5 5 5 4 4 3 3 4 4 4 3 4 3 3 2 1 1 1 2 2 3 3 3 5 5 6 4 5 5 5 4 4 5 5 6 5 6 5 6 7 7 8 14 14 16 16 17 18 19 18 18 18 17 16 17 17 16 16
2 3 4 4 5 5 5 3 1 2 4 6 7 6 6 7 8 8 7 7 9 7 7 7 7 6 7 7 7 7 7 7 7 8 7 8 7 8 6 6 6 6 4 5 4 4 5 5 5 5 5 6 6 6 6 7 6 6 5 5 5 6 6 7 7 8 7 7 8 12 18 18 19 19 19 19 19 19 19 19 19 18 18 17 17
2 3 4 4 4 5 3 3 5 6 6 7 6 6 4 7 6 6 6 9 8 7 8 7 7 7 7 7 7 7 7 7 7 7 9 7 7 8 8 7 7 7 6 7 6 6 6 5 6 7 6 6 7 6 5 6 7 7 7 6 6 6 7 7 7 7 7 7 7 9 18 18 20 21 21 21 21 20 20 20 20 20 19 19 18
3 3 4 4 4 4 4 5 6 7 8 8 8 8 7 9 8 8 7 8 7 7 8 8 8 8 7 8 8 8 8 7 8 7 8 7 8 8 8 7 8 7 6 7 7 8 8 8 8 7 7 6 6 5 5 6 7 7 6 6 6 7 7 7 7 7 8 7 7 7 10 17 18 20 21 21 21 21 21 21 21 20 20 20 20
3 4 3 4 4 5 5 6 7 9 11 8 10 8 10 9 8 8 8 7 7 7 9 8 8 7 8 8 8 7 8 8 8 8 8 9 8 9 7 8 7 7 7 8 8 8 8 7 7 7 6 6 7 7 6 7 7 6 6 7 6 8 7 7 7 7 7 7 7 7 8 9 15 19 21 22 22 22 22 22 22 21 21 21 20
2 2 3 3 5 5 5 6 7 9 11 8 9 6 9 8 9 9 7 7 8 9 8 8 8 7 8 9 8 8 8 8 9 9 9 9 8 9 9 8 7 6 8 8 9 8 8 8 8 6 6 7 8 7 6 7 7 7 7 6 6 7 7 7 7 7 7 7 7 7 7 8 8 11 17 20 22 23 23 23 23 22 22 21 21
1 2 3 5 4 4 4 5 7 10 10 8 8 8 8 9 8 8 8 8 7 9 9 9 8 8 8 9 9 9 9 8 9 9 8 8 8 9 8 8 7 6 5 7 8 8 8 8 6 7 7 7 7 6 7 7 5 6 7 5 6 6 7 7 7 7 7 7 7 7 7 8 7 7 9 14 19 21 24 24 23 23 23 22 22
2 3 5 5 6 5 4 6 7 10 10 9 9 10 8 9 9 9 8 8 8 9 9 8 8 7 7 8 9 8 9 9 8 8 8 8 8 8 8 7 6 5 6 7 7 8 8 9 7 7 7 7 6 7 6 6 6 8 6 6 7 6 7 7 7 8 8 8 8 7 8 8 7 7 7 8 11 17 21 23 23 24 23 23 23
3 3 5 5 7 7 6 9 8 11 10 9 10 10 9 10 10 8 8 8 9 10 8 8 7 7 7 8 9 9 9 9 9 8 9 8 8 8 7 6 6 7 7 7 8 9 8 9 9 7 8 8 7 8 6 6 6 7 7 7 7 8 7 7 8 8 7 8 8 8 8 8 7 7 7 8 8 10 19 20 22 23 24 23 23
3 5 6 6 8 8 8 10 9 12 10 12 12 11 9 10 11 10 9 9 9 9 8 7 8 8 7 7 8 10 10 10 10 9 10 9 8 8 7 7 7 8 8 8 9 7 8 7 9 8 5 6 8 7 7 6 7 7 7 8 8 8 8 7 7 7 8 9 9 8 8 8 7 7 7 8 8 8 12 19 19 20 21 22 23
5 5 5 7 8 7 7 9 9 10 9 11 11 10 10 10 11 9 10 10 9 9 8 7 8 7 7 7 8 9 9 10 10 9 10 9 8 8 8 8 7 8 9 9 9 7 7 7 8 8 8 9 9 8 6 6 6 7 8 8 8 9 8 8 7 8 8 9 9 9 7 7 8 8 8 8 8 8 9 13 17 17 18 20 21
4 6 7 7 8 7 7 8 9 10 10 10 12 12 10 11 10 11 11 10 9 8 7 8 7 7 8 8 9 9 9 10 10 9 9 9 9 9 9 8 7 8 9 9 8 8 8 9 9 8 8 9 7 6 4 3 7 7 7 7 7 8 7 8 8 8 7 7 8 8 8 9 8 8 8 8 7 8 9 9 9 9 10 18 19
5 6 8 8 9 9 8 7 8 9 9 9 8 10 9 8 11 10 11 9 8 8 8 8 7 8 8 9 9 9 9 9 10 9 10 9 9 8 9 8 8 8 10 10 8 8 9 10 11 9 8 9 10 7 7 4 5 7 7 6 6 7 9 8 8 8 7 7 7 7 8 8 8 7 8 7 7 8 9 9 9 9 8 12 18
5 5 6 7 9 10 9 9 7 6 6 8 7 8 10 9 9 10 11 7 8 8 9 8 8 8 9 9 9 8 9 10 9 8 9 9 9 8 9 9 8 9 10 9 7 8 7 6 7 8 11 12 11 10 8 3 4 4 2 4 5 4 7 9 9 8 7 6 6 7 7 9 8 8 7 6 7 8 8 9 9 9 9 7 9
3 4 5 6 6 7 8 9 6 5 5 6 8 7 5 5 11 9 10 7 7 7 9 8 8 8 9 9 8 8 8 9 8 8 9 9 9 8 8 8 8 8 9 7 9 9 9 9 5 9 8 10 9 8 10 3 6 2 1 2 5 4 2 7 10 5 6 6 6 7 7 9 10 9 8 8 9 9 8 8 8 8 9 8 8
5 4 5 6 5 6 6 7 6 6 6 6 8 9 8 7 9 9 10 11 7 7 8 7 7 9 9 8 8 8 8 9 8 8 9 8 9 9 8 7 8 7 10 10 9 10 8 7 6 6 7 5 7 8 10 7 2 0 0 2 3 5 4 6 3 5 5 4 6 7 7 8 10 8 6 7 9 9 9 10 10 9 8 8 8
6 5 5 6 5 5 7 8 8 7 7 7 9 10 11 12 10 11 9 10 10 8 10 8 8 9 10 8 8 8 8 9 8 8 9 9 8 9 7 8 8 7 8 9 9 9 7 7 7 6 4 8 6 8 8 8 6 1 2 3 0 1 4 5 7 5 2 3 6 6 6 8 8 8 6 7 7 8 8 9 11 10 9 8 8
5 5 5 5 5 7 8 8 8 8 8 10 11 13 14 12 13 12 12 12 9 7 9 9 7 7 8 8 7 6 8 9 8 8 8 9 8 8 8 8 8 7 7 8 8 7 6 5 6 7 6 7 7 4 7 8 10 7 4 3 3 5 0 4 4 6 5 6 5 7 7 9 10 10 7 6 7 8 7 10 10 9 10 10 9
5 4 5 5 7 7 8 8 8 9 10 11 11 10 13 14 12 11 10 10 9 7 9 9 7 8 8 4 7 7 7 8 7 8 8 8 9 8 8 8 7 7 6 7 6 7 8 8 6 5 7 5 7 6 5 4 8 9 8 4 2 3 1 3 4 5 5 1 0 5 4 6 7 9 7 6 9 8 7 9 9 9 9 8 8
5 6 6 6 7 9 8 9 9 9 8 9 8 9 9 8 10 10 10 11 12 5 5 5 8 6 6 7 6 6 6 9 8 8 8 7 7 7 7 7 7 7 6 7 8 7 7 6 5 8 6 5 6 9 7 3 2 7 7 6 7 4 1 3 2 3 6 4 2 4 4 5 6 6 5 5 8 6 7 8 9 9 9 8 8
8 7 7 6 8 8 10 9 8 8 7 6 6 3 11 9 11 11 10 9 10 11 8 7 6 6 8 7 7 7 8 7 7 7 6 6 7 7 6 7 8 6 7 7 7 5 6 6 7 7 7 7 7 8 6 6 6 3 4 8 6 4 5 7 4 2 2 7 11 3 1 5 5 5 2 6 6 5 8 8 8 8 7 8 7
7 8 7 8 7 8 9 9 8 7 6 5 6 4 9 11 12 11 11 8 10 9 7 7 8 6 10 7 8 7 7 6 6 6 6 6 6 6 6 7 7 6 6 7 6 7 7 7 7 8 7 7 6 5 7 7 7 6 5 6 6 6 4 4 6 6 2 3 5 6 13 11 5 1 6 4 3 4 6 7 7 7 7 7 6
6 7 7 8 8 8 9 9 7 6 6 7 7 7 9 11 12 12 16 11 9 8 7 8 7 7 10 8 6 6 6 6 6 5 6 5 6 6 6 7 7 6 6 6 6 7 7 7 7 7 7 8 6 7 7 6 6 5 5 4 6 5 5 4 3 4 2 0 2 9 7 9 13 12 10 10 9 6 5 6 6 7 7 6 6
6 8 8 8 8 8 9 9 7 7 7 8 8 8 7 9 12 13 15 15 12 12 11 9 8 8 9 7 6 6 5 6 5 5 5 4 5 5 6 6 6 5 6 6 6 6 6 6 6 7 7 7 6 6 6 5 5 6 6 6 6 6 4 4 3 4 3 2 5 6 7 6 8 12 5 5 10 12 7 4 7 6 5 5 6
Wind_Direction
254 149 165 171 153 139 135 128 127 120 117 115 111 108 106 105 104 105 102 102 104 107 95 99 106 99 98 98 97 93 90 88 83 76 75 75 73 68 64 59 54 49 47 46 46 45 47 48 50 52 54 54 54 52 47 42 38 35 35 37 39 38 34 31 29 29 34 43 51 55 56 55 55 57 55 53 50 48 48 48 45 39 31 48 54
178 199 153 164 153 140 137 140 127 123 120 116 112 110 108 106 106 103 105 104 108 102 98 108 105 103 103 100 95 94 92 87 83 81 78 75 72 69 65 60 55 49 48 48 47 46 47 47 48 48 49 51 51 52 52 49 42 34 30 34 34 34 33 29 32 44 46 48 46 45 49 57 57 52 53 52 49 45 43 44 44 40 27 51 52
137 155 168 151 136 141 140 143 127 133 124 119 114 113 111 112 111 107 106 110 106 100 101 101 109 109 105 102 97 93 91 89 90 85 80 76 72 69 64 59 54 50 50 50 49 48 48 48 49 49 48 48 48 49 51 51 46 38 31 31 31 32 30 31 57 72 66 54 44 50 46 45 55 56 51 50 49 45 42 40 40 41 40 43 45
145 167 158 140 130 133 143 149 133 145 127 121 116 112 107 105 106 107 104 106 100 100 101 101 105 110 108 105 102 96 96 96 91 88 85 80 75 70 65 59 53 51 51 51 52 52 52 51 51 51 49 47 47 48 48 49 48 43 35 31 30 31 32 37 59 74 68 60 54 55 49 39 44 55 53 51 49 46 43 41 39 38 36 39 38
149 154 153 133 132 137 165 153 148 133 129 127 122 117 113 111 109 108 107 104 107 111 108 104 100 104 109 107 102 102 98 96 92 88 84 80 76 71 66 59 54 53 51 52 53 53 53 52 52 52 50 48 47 46 47 48 48 45 37 31 28 29 31 39 61 72 71 68 65 55 49 44 42 54 54 53 49 45 45 42 40 37 34 33 37
152 151 149 143 141 163 171 157 151 137 135 133 129 124 122 120 119 115 111 107 102 103 95 94 96 99 104 105 105 105 104 99 94 88 84 81 77 72 67 60 54 54 52 53 53 54 53 53 52 52 50 48 46 45 45 46 46 43 36 30 27 27 29 39 58 66 67 72 60 56 46 42 49 52 54 53 50 45 43 42 41 39 35 33 27
153 151 146 146 145 157 160 149 152 140 138 137 133 131 130 130 127 122 118 115 110 110 108 105 103 104 105 108 109 109 107 100 95 90 87 83 77 73 68 62 56 54 54 54 53 53 54 53 54 53 52 49 48 46 45 43 42 40 36 31 29 28 29 42 74 73 63 58 61 56 51 46 41 47 55 52 48 45 41 40 40 39 38 35 31
142 150 156 147 148 154 150 154 150 147 142 140 138 135 135 135 131 128 124 119 117 113 117 112 108 110 112 112 113 109 105 100 94 92 88 84 81 74 68 61 58 56 56 56 56 56 56 56 55 55 54 52 49 47 45 43 42 42 40 37 33 29 32 44 59 74 70 64 60 60 57 54 49 46 56 54 50 47 44 39 38 37 37 35 34
157 158 153 148 150 153 150 151 152 150 150 143 142 140 139 138 132 128 126 123 121 121 120 118 112 115 117 116 114 111 105 100 97 94 90 87 83 78 71 64 60 59 59 59 59 59 59 59 58 57 57 54 51 49 47 47 46 46 42 40 34 32 38 47 51 61 59 66 60 59 57 51 47 54 58 55 51 48 46 43 31 35 34 34 33
159 155 154 151 154 160 151 159 158 155 152 149 146 143 139 135 132 130 129 126 124 124 123 123 122 121 121 119 113 113 110 104 100 99 97 92 87 82 76 71 66 63 61 62 63 62 62 61 61 59 59 57 54 52 50 50 50 48 44 39 36 36 41 52 49 49 50 49 45 39 50 56 36 39 57 56 55 49 47 44 43 38 37 39 35
157 159 162 156 159 158 157 158 160 162 155 154 149 150 143 140 138 132 130 128 126 124 124 123 124 122 119 117 122 119 117 109 109 107 105 101 93 89 85 78 74 68 63 63 63 64 64 63 61 60 58 57 55 54 54 53 52 49 44 41 39 41 48 56 55 48 46 45 43 36 26 31 41 40 54 56 53 52 44 42 43 41 38 36 35
160 146 147 159 159 158 159 159 157 159 161 159 152 154 147 143 140 136 133 131 129 126 124 125 121 121 118 117 119 122 119 119 118 115 111 104 101 96 90 85 78 71 66 62 63 64 64 63 63 62 60 57 56 55 56 58 56 52 47 44 45 49 51 54 56 51 45 41 36 31 33 27 27 48 51 52 48 49 43 40 41 43 39 34 34
125 124 118 137 145 159 156 158 158 162 167 166 160 157 149 150 143 138 136 136 133 129 128 119 117 123 122 126 130 128 123 119 120 119 115 108 101 98 94 89 81 73 66 63 61 61 62 62 62 62 62 60 57 56 57 59 58 52 47 46 48 54 55 56 56 53 47 40 35 27 21 14 28 46 43 48 48 49 42 37 40 42 40 36 38
106 111 121 134 135 152 152 157 163 165 161 168 157 163 152 152 145 142 141 142 137 133 132 127 128 129 129 130 131 133 129 125 124 123 117 112 107 102 98 91 82 75 68 63 60 58 59 60 60 60 60 59 59 57 58 59 55 51 49 50 52 55 57 55 50 52 49 40 31 25 20 360 15 41 45 41 51 48 43 34 40 44 42 37 37
114 106 114 111 125 134 148 153 158 163 160 167 156 152 151 151 144 144 141 138 139 131 124 129 132 133 136 137 138 140 137 133 131 129 126 117 112 110 102 91 85 79 72 67 63 60 59 58 57 56 56 56 56 56 57 55 51 49 52 54 57 58 64 66 56 51 47 42 31 22 15 358 24 33 32 40 58 52 44 36 37 43 42 38 37
84 93 83 95 104 123 136 157 154 160 147 145 146 149 157 147 148 144 142 136 137 132 129 131 133 136 141 142 144 144 144 138 135 135 126 121 118 116 107 96 91 83 77 71 68 66 63 60 58 56 55 56 58 58 54 50 48 49 48 51 55 60 66 71 61 50 44 37 28 26 10 355 31 32 34 47 59 50 49 40 37 38 40 36 36
54 59 71 71 89 102 109 160 162 151 145 144 131 134 149 151 158 145 145 139 141 137 133 133 135 142 147 148 149 149 148 142 141 141 130 122 124 121 112 103 96 89 81 77 74 74 71 66 61 58 57 60 62 60 54 50 49 46 47 49 50 54 56 60 58 46 41 32 27 14 2 353 40 39 29 48 48 45 41 39 32 39 38 36 34
39 52 55 53 72 118 150 180 165 147 146 152 149 156 149 156 134 83 67 141 136 135 136 135 138 144 149 152 152 151 144 142 142 136 126 127 127 121 113 109 103 96 88 84 83 82 80 72 66 62 62 64 64 61 56 52 48 44 44 48 50 49 49 55 55 39 35 28 16 2 359 4 39 38 30 26 46 45 38 35 35 36 35 29 33
37 34 30 29 11 336 165 199 130 135 157 161 159 173 164 167 148 101 60 73 141 136 139 143 139 142 149 150 145 131 128 133 137 135 130 128 126 118 118 116 114 105 98 94 92 89 86 81 71 64 61 62 65 64 62 58 54 49 46 48 55 53 49 51 49 41 34 28 12 7 357 4 26 30 27 30 44 44 45 32 33 37 27 19 18
40 30 25 21 7 10 5 2 46 150 181 160 159 167 186 162 158 168 96 114 102 131 144 147 144 147 151 149 142 129 118 127 140 134 132 134 127 128 128 120 120 113 107 100 96 94 91 85 77 70 62 54 50 50 57 63 59 53 50 51 54 56 51 51 50 47 39 28 22 5 8 9 13 23 20 20 35 35 39 35 32 35 26 33 13
14 21 20 5 4 10 6 13 354 7 208 193 167 173 176 156 156 179 163 164 137 151 148 142 141 142 146 146 140 134 138 141 150 143 141 138 140 140 129 124 116 115 110 100 93 89 86 81 77 71 59 48 38 40 38 50 53 52 50 51 54 54 52 53 51 47 38 28 22 9 21 16 9 15 17 15 28 27 18 27 31 21 7 37 10
355 352 1 3 3 2 352 351 356 357 338 233 152 160 125 162 159 186 177 190 147 136 143 140 136 123 134 141 148 148 155 162 156 150 155 146 148 149 134 122 118 111 111 99 90 82 78 70 70 65 55 43 46 46 41 39 40 46 46 48 47 50 49 52 50 45 40 23 20 22 25 24 16 14 14 11 8 12 2 4 5 4 11 22 9
3 353 343 350 354 340 352 350 346 343 335 305 179 183 175 175 168 175 189 178 153 144 142 140 145 146 147 153 132 159 163 169 158 164 161 153 148 155 133 125 124 123 120 106 94 87 78 72 63 62 65 64 64 61 54 44 40 42 45 45 48 43 50 50 48 40 30 24 14 21 24 26 24 20 17 14 10 8 1 358 349 4 8 357 11
339 338 318 324 350 351 338 332 335 330 343 326 233 177 167 174 164 173 180 178 132 130 156 162 169 141 145 145 173 168 174 174 167 161 144 142 141 139 125 120 126 128 126 83 78 62 70 60 50 56 66 63 75 70 66 51 45 44 49 50 53 46 50 50 53 43 30 20 13 21 21 25 27 26 23 22 20 15 9 3 353 349 355 4 15
315 305 337 335 337 337 335 333 329 327 335 321 305 178 159 176 165 166 155 149 150 129 95 107 64 96 130 157 158 175 179 155 129 162 145 135 135 128 114 113 122 121 112 110 59 49 46 44 43 53 68 77 72 70 80 68 49 48 47 46 51 47 47 42 44 48 32 24 16 21 18 23 27 29 26 26 24 21 20 14 11 3 357 355 3
340 17 332 326 326 325 323 315 319 318 324 324 281 220 148 173 144 141 136 134 113 72 58 79 88 105 75 154 135 150 165 140 142 163 171 160 154 151 133 119 115 139 126 135 54 61 42 47 67 73 52 58 66 71 66 83 78 50 47 43 49 52 48 42 38 44 31 26 19 20 18 19 26 28 28 29 29 25 23 19 17 18 15 9 7
6 344 317 309 313 315 317 320 310 324 331 277 54 68 77 69 65 57 109 95 90 90 76 66 55 36 57 354 83 86 90 129 155 150 151 92 41 127 124 115 117 148 141 122 166 85 74 49 70 65 53 56 45 37 51 43 44 58 46 41 39 46 47 41 40 38 30 27 23 17 20 25 30 27 28 29 28 24 23 20 18 19 17 16 15
353 322 318 310 306 307 301 305 294 313 280 68 76 70 75 74 73 66 64 77 71 61 64 62 58 51 41 46 59 51 51 51 57 63 62 50 63 45 51 51 51 49 68 73 165 86 71 71 70 51 54 48 50 35 40 42 37 29 41 32 36 37 39 38 41 39 35 39 38 33 33 34 35 33 33 30 27 27 26 23 23 21 18 18 17
18 336 320 324 320 308 302 297 277 165 100 86 77 77 71 75 73 68 62 71 74 65 66 62 65 56 47 47 54 64 58 51 48 54 55 57 57 48 42 39 38 33 28 34 31 60 64 57 64 64 56 54 45 31 35 41 31 28 29 27 33 40 35 36 37 39 44 47 42 36 38 37 40 40 37 34 33 33 31 29 25 23 21 20 19
355 324 331 325 318 316 337 40 99 105 95 79 80 78 67 77 65 71 71 70 69 66 69 61 62 60 56 53 54 69 68 74 72 64 67 57 62 60 52 39 44 31 36 43 27 51 54 54 52 46 49 52 49 27 36 42 35 29 26 28 32 44 49 51 47 49 51 46 43 39 41 43 42 42 39 36 34 34 33 30 27 24 22 21 19
355 350 341 331 323 345 43 71 81 93 87 86 90 85 80 73 68 70 62 67 71 69 65 64 55 52 57 59 58 60 77 73 76 75 76 67 59 62 55 53 47 35 43 50 45 53 49 44 42 46 40 44 47 35 39 48 38 28 21 32 30 52 51 51 55 52 52 47 49 46 40 42 41 40 37 36 35 34 33 30 28 25 24 22 20
6 339 323 314 354 17 53 75 86 93 93 90 90 79 80 77 73 73 66 67 74 71 68 61 59 52 52 59 62 62 68 66 65 68 71 70 64 61 58 56 54 44 47 53 49 49 57 51 43 42 43 50 44 34 25 46 34 27 21 32 36 57 53 55 58 56 57 54 51 48 42 37 36 39 36 34 34 32 31 29 26 25 24 22 20
316 290 313 12 27 22 50 61 83 86 90 84 90 77 86 84 80 76 73 74 70 70 73 70 65 59 54 57 57 61 62 69 66 64 64 66 66 64 60 56 54 58 62 65 67 59 55 49 45 42 38 45 44 31 31 45 36 20 29 30 43 52 53 56 55 56 53 51 47 46 43 39 38 33 33 33 31 32 30 28 27 25 23 22 20
328 2 41 44 26 39 55 62 72 83 85 81 84 92 83 87 83 82 75 73 74 82 76 73 71 67 66 62 66 66 68 68 76 72 65 67 64 63 59 54 47 51 61 64 62 61 59 51 39 48 41 44 43 32 37 36 22 31 40 28 49 47 54 60 58 56 53 48 45 43 38 39 37 39 34 30 31 32 30 27 26 24 23 21 20
48 56 56 57 59 53 60 71 75 86 87 86 78 87 83 87 86 81 80 78 79 77 74 75 74 71 72 71 67 68 73 73 70 81 74 71 69 67 58 55 52 52 57 53 67 60 58 52 35 43 41 40 38 39 42 44 36 43 33 36 44 49 57 64 59 54 51 48 47 41 39 36 32 35 33 32 26 25 28 25 24 22 21 19 19
72 84 81 73 71 62 71 86 82 87 83 85 90 82 85 86 83 77 78 72 74 74 70 67 70 72 66 69 67 67 66 67 68 68 75 66 66 68 58 53 55 60 56 53 55 56 54 55 43 38 47 36 35 35 31 44 45 51 42 50 46 53 55 48 50 52 48 49 43 39 37 33 32 31 29 29 26 20 24 24 22 19 16 15 16
84 92 98 91 85 82 77 91 94 94 95 90 85 84 87 89 86 78 75 71 73 75 69 68 68 68 67 68 72 73 71 71 71 72 79 74 68 68 63 56 53 60 55 49 52 46 49 58 51 42 48 58 45 37 34 39 59 63 63 57 51 55 53 48 47 45 47 48 42 39 34 29 30 28 26 26 22 17 16 19 20 17 11 9 12
83 91 93 99 100 97 97 98 95 94 101 97 92 91 88 82 86 84 77 72 67 70 69 69 70 67 67 68 69 72 73 76 75 76 79 75 72 69 65 57 58 63 63 54 53 48 49 49 60 43 42 48 43 37 34 35 69 69 62 63 63 62 54 52 50 48 48 44 42 39 33 31 29 25 23 21 20 18 15 9 11 11 9 7 8
99 102 102 98 103 103 103 101 105 102 95 98 103 98 90 87 84 83 76 71 66 63 68 70 66 68 68 68 68 70 69 70 73 74 81 78 71 66 65 56 59 67 68 61 50 43 48 45 52 47 47 53 55 40 24 33 76 76 70 68 72 66 62 59 55 52 47 46 44 36 35 28 26 21 19 16 17 18 14 12 8 6 360 0 4
107 110 114 115 111 108 101 102 106 114 115 110 108 103 97 95 94 87 75 67 68 69 62 68 68 66 63 68 67 69 68 71 69 70 77 78 77 70 70 62 62 66 64 58 46 41 40 45 39 43 47 49 40 28 21 17 77 74 83 67 61 65 64 60 55 48 43 37 37 40 36 28 28 18 19 11 17 15 13 8 4 359 359 355 358
102 121 118 120 126 125 123 113 117 117 117 117 106 105 108 104 82 84 88 78 77 75 71 64 66 64 61 64 65 67 68 71 67 71 74 76 72 70 69 60 58 64 65 63 57 54 44 49 53 41 43 46 29 13 9 6 68 67 15 51 33 40 70 69 55 43 39 34 35 44 33 31 21 19 10 11 18 14 10 4 359 354 354 354 353
98 118 117 119 124 123 123 121 114 105 97 99 108 93 78 93 113 105 103 90 81 78 82 68 70 68 61 62 64 64 66 67 67 69 70 73 76 70 65 64 63 69 74 69 59 52 45 41 34 61 33 56 45 13 3 52 30 73 9 323 358 345 61 64 63 31 41 32 31 42 34 33 21 9 4 11 13 8 5 359 356 353 349 349 349
121 108 118 115 107 110 110 109 108 101 87 92 100 105 99 89 99 104 102 99 71 78 83 79 73 75 65 61 61 63 67 66 64 67 74 71 75 75 69 69 62 66 71 59 55 53 47 49 42 83 75 46 63 27 23 33 100 315 207 75 358 8 324 7 37 52 38 37 32 42 37 35 21 9 5 11 10 3 356 353 350 349 345 345 343
123 118 116 118 111 105 107 106 108 105 104 100 103 98 100 100 88 99 89 91 106 91 83 74 72 73 65 60 55 62 64 70 65 69 73 70 72 76 75 68 66 60 73 75 61 58 49 48 50 49 83 79 45 40 26 27 46 75 25 77 162 97 355 344 341 314 349 81 37 40 36 26 16 9 9 9 6 359 352 348 347 342 340 339 340
132 136 133 124 116 115 110 111 109 109 109 116 117 118 110 100 101 94 98 92 79 86 88 68 65 71 76 57 51 56 65 69 64 67 74 76 72 75 76 73 72 61 69 77 72 67 64 59 56 66 51 97 77 73 35 30 39 31 128 75 8 35 192 264 336 291 352 10 2 37 26 22 12 359 357 353 2 357 349 347 342 338 335 337 338
136 130 126 126 123 112 116 113 110 116 123 125 129 128 125 128 126 120 113 105 96 88 91 104 90 78 79 79 61 54 66 71 66 70 70 73 71 68 71 77 75 71 70 79 80 69 54 55 41 67 66 44 105 78 60 28 55 44 43 70 138 156 255 285 55 318 339 286 352 30 25 37 15 350 341 354 356 347 348 344 334 331 327 330 334
135 127 121 126 122 125 121 125 128 125 130 133 136 130 114 113 116 117 118 119 117 92 99 93 101 93 89 78 74 60 58 73 64 63 66 68 74 72 74 75 74 71 65 72 69 67 63 58 50 58 55 57 63 74 56 345 18 43 40 54 58 46 84 81 18 290 335 322 359 11 348 25 2 335 335 354 343 341 341 336 328 325 324 327 333
138 133 131 134 133 135 133 131 127 129 133 134 133 141 121 118 111 108 109 112 113 124 120 108 95 102 90 82 78 65 57 58 69 64 66 70 74 73 74 75 75 67 70 69 74 71 72 57 56 59 60 55 62 81 75 32 70 357 18 39 36 53 53 70 70 74 265 307 319 326 206 10 340 313 342 343 326 338 333 324 321 317 317 321 328
145 139 141 138 136 134 129 127 127 129 125 121 119 116 122 123 120 120 110 106 114 116 114 107 104 103 93 82 78 72 68 60 61 71 65 70 71 80 78 80 78 74 75 77 72 70 71 73 61 58 61 57 57 72 76 59 56 43 30 16 29 27 31 63 46 27 23 307 284 344 328 331 331 252 340 303 291 323 311 306 306 307 312 316 326
140 127 128 134 137 133 130 127 126 125 122 114 115 119 124 125 123 127 124 126 123 117 114 114 107 105 97 91 86 83 80 74 64 64 72 67 76 75 77 77 78 78 75 79 79 73 68 67 63 68 65 68 50 62 79 80 79 68 76 75 59 13 26 12 33 13 331 44 315 316 331 334 336 326 334 334 330 320 303 291 303 304 309 317 319
131 134 139 142 143 135 132 125 129 120 117 118 125 126 126 127 129 133 132 134 134 131 126 115 115 109 109 106 102 100 89 87 84 72 70 73 75 73 76 76 75 75 73 68 67 74 71 75 73 68 64 68 64 67 65 67 76 68 62 71 76 71 71 52 3 10 46 354 332 314 322 325 309 310 312 336 317 317 314 310 305 302 308 315 315